NOAA 16 DEB, 42417

Orbit data source: Space-Track

NOAA 16 DEB, 42417 is space debris in SSO originally from a launch on Thu, 21 Sep 2000 UTC launched from the Air Force Western Test Range (AFWTR). Debris objects in space refer to the collection of defunct objects orbiting the Earth. Examples of debris include non-operational satellites, rocket bodies, and fragments generated from explosions, collisions, or faulty payload assembly.

Loading next visibility...
Identifier
42417, 2000-055TM
Orbit
SSO
Country
Flag of USUS
Related business
Manufacturer
Unknown
Mission
Spacecraft
Bus & Motor
Unknown
Mass
Unknown
Launch date (UTC)
2000-09-21 (26 years ago)
Launch vehicle
Unknown
Launch site
Air Force Western Test Range (AFWTR)
Object type
Payload
Rocket body
Debris
Shape & HBR
Unknown shape, 0.1 m
Radar Cross Section
Medium (>0.1 m² and <1 m²)

Expand to show TLE details & history
Last TLE update: 4 days ago

TLE from 4 days ago
0 NOAA 16 DEB
1 42417U 00055TM  26169.66229323  .00003867  00000-0  14377-2 0  9993
2 42417  98.7397 248.1785 0025596  62.3981 297.9797 14.32503792530749
Epoch: 2026-06-18T15:53Z
TLE epoch observation values (Epoch: 2026-06-18T15:53:42.135Z)
Latitude
-0.00003°
Longitude
102.85054°
Altitude
777.739 km
Speed
7.47 km/s
True Right ascension
16h 32m 42s
True Declination
0° 00' 00"
Sunlit
Object was in full shadow at epoch
Visualization orbit readout
Latitude
Unknown
Longitude
Unknown
Altitude
Unknown
Speed
Unknown
Apparent Right ascension
Unknown
Apparent Declination
Unknown
Sunlit
N/A
Visualization observer readout
Local Sidereal Time
21:39:00
Azimuth
Unknown
Elevation
Unknown
Doppler factor
Unknown
Orbital elements
Apogee altitude
798.84 km
Perigee altitude
762.194 km
Semi-major axis
7,158.654 km
Eccentricity
0.00256
Inclination
98.7397°
RAAN
248.1785°
Arg. of periapsis
62.3981°
True anomaly
297.72029°
Mean anomaly
297.9797°
Eccentric anomaly
297.85003°
Mean motion
3.58341 °/min
Orbital period
100.46 mins
BSTAR
0.0014377
Loading maneuver chart data...
Computing Atmospheric mass density...
Loading historical data...
Loading historical data...
Loading historical data...
Loading historical data...
Loading historical data...
Loading historical data...
Loading historical data...

Documentation

Showing up to 5 results
|